Torna al catalogo

YAOGAN-35 05B

AttivoMilitareVLEO
NORAD 53761·PAYLOAD·🇨🇳 China

Lanciato Sep 6, 2022 da Xichang Satellite Launch Center

Loading…

Prossimi Passaggi (prossime 24 ore)

TLE

AggiornatoSource: Space-Track

Epoca: Sep 14, 2026, 21:47 UTC

1 53761U 22109B   26257.90832385  .00016881  00000-0  38498-3 0  9995
2 53761  34.9770  89.5320 0005543 308.5858  51.4366 15.41989948224714

Traccia YAOGAN-35 05B in tempo reale con AllMySat

Download on the App Store